Location: Colle Santa Colomba
(42.0333°N, 12.5667°E)
Time: 22:06:42
(UTC+00:00)

Cosmos 407 Rocket - Pass Details

Date: 25 October 2021
Orbit: 743 x 787 km, 74.0° (Epoch: 04 December)

Event Time Altitude Azimuth Distance (km) Brightness Sun altitude
Rises 17:34:56 0° 348° (NNW) 3,272 6.9 -15.8°
Reaches altitude 10° 17:37:33 10° 358° (N) 2,345 6.0 -16.3°
Maximum altitude 17:42:22 33° 62° (ENE) 1,293 4.2 -17.2°
Enters shadow 17:43:33 30° 88° (E) 1,380 4.2 -17.4°
